Mobile, AL

12:40 PM CDT on September 30, 2016 (GMT -0500)
Mobile Regional

Weather History for KMOB - October, 2012

Change the Weather History Date:

Monday, October 1, 2012

  Actual Average Record
Temperature  
Mean Temperature 69 °F 73 °F  
Max Temperature 76 °F 83 °F 92 °F (1954)
Min Temperature 62 °F 63 °F 45 °F (1920)
Degree Days  
Heating Degree Days 0 0  
Month to date heating degree days 0 0  
Since 1 July heating degree days 0 2  
Cooling Degree Days 4 8  
Month to date cooling degree days 4 8  
Year to date cooling degree days 2558 2312  
Growing Degree Days 18 (Base 50)    
Moisture  
Dew Point 65 °F    
Average Humidity 84    
Maximum Humidity 94    
Minimum Humidity 73    
Precipitation  
Precipitation 0.03 in 0.13 in 3.34 in (1906)
Month to date precipitation 0.03 0.13  
Year to date precipitation 64.03 52.40  
Sea Level Pressure  
Sea Level Pressure 29.63 in    
Wind  
Wind Speed 8 mph (SW)    
Max Wind Speed 20 mph    
Max Gust Speed 25 mph    
Visibility 8 miles    
Events Rain    
T = Trace of Precipitation, MM = Missing Value Source: NWS Daily Summary

Daily Weather History Graph

Daily Weather History Graph

Search for Another Location

Airport or City:

Trip Planner

Search our weather history database for the weather conditions in past years. The results will help you decide how hot, cold, wet, or windy it might be!

Date:

Astronomy

Oct. 01, 2012 Rise Set
Actual Time 6:46 AM CDT 6:37 PM CDT
Civil Twilight 6:22 AM CDT 7:01 PM CDT
Nautical Twilight 5:54 AM CDT 7:29 PM CDT
Astronomical Twilight 5:26 AM CDT 7:57 PM CDT
Moon 7:25 PM CDT (10/1) 8:06 AM CDT (10/1)
Length of Visible Light 12h 38m
Length of Day
11h 50m
Full, 98% of the Moon is Illuminated
Oct 1
Full
Oct 8
Last Quarter
Oct 15
New
Oct 21
First Quarter
Oct 29
Full

Hourly Weather History & Observations

Time (CDT) Temp. Dew Point Humidity Pressure Visibility Wind Dir Wind Speed Gust Speed Precip Events Conditions
12:15 AM 73.4 °F 71.6 °F 94% 29.61 in 6.0 mi South 16.1 mph 21.9 mph 0.08 in Rain Light Rain
12:53 AM 75.2 °F 73.4 °F 94% 29.59 in 6.0 mi SSE 6.9 mph - 0.10 in   Overcast
12:56 AM 75.0 °F 73.0 °F 94% 29.58 in 6.0 mi South 5.8 mph - 0.10 in   Overcast
1:56 AM 75.0 °F 73.0 °F 94% 29.57 in 10.0 mi South 8.1 mph - N/A   Scattered Clouds
2:25 AM 75.2 °F 73.4 °F 94% 29.56 in 10.0 mi South 5.8 mph - N/A   Overcast
2:56 AM 75.0 °F 73.0 °F 94% 29.55 in 10.0 mi South 6.9 mph - N/A   Overcast
3:47 AM 75.2 °F 71.6 °F 89% 29.53 in 10.0 mi South 8.1 mph - N/A   Scattered Clouds
3:56 AM 75.9 °F 72.0 °F 87% 29.54 in 5.0 mi SW 10.4 mph 18.4 mph 0.00 in Rain Light Rain
4:56 AM 73.9 °F 72.0 °F 93% 29.54 in 10.0 mi SSW 11.5 mph - 0.03 in   Mostly Cloudy
5:56 AM 73.9 °F 71.1 °F 91% 29.55 in 10.0 mi SW 9.2 mph - N/A   Scattered Clouds
6:56 AM 73.0 °F 69.1 °F 87% 29.57 in 10.0 mi SSW 6.9 mph - N/A   Mostly Cloudy
7:56 AM 73.0 °F 69.1 °F 87% 29.58 in 10.0 mi SW 8.1 mph - 0.00 in   Mostly Cloudy
8:56 AM 75.0 °F 68.0 °F 79% 29.60 in 10.0 mi SW 10.4 mph - N/A   Mostly Cloudy
9:56 AM 73.0 °F 64.9 °F 76% 29.63 in 10.0 mi WSW 10.4 mph - N/A   Mostly Cloudy
10:56 AM 72.0 °F 64.0 °F 76% 29.63 in 10.0 mi WSW 5.8 mph - N/A   Mostly Cloudy
11:56 AM 73.0 °F 64.0 °F 73% 29.64 in 10.0 mi SSW 10.4 mph - N/A   Overcast
12:56 PM 71.1 °F 63.0 °F 75% 29.62 in 10.0 mi West 8.1 mph - N/A   Mostly Cloudy
1:56 PM 72.0 °F 62.1 °F 71% 29.61 in 10.0 mi SW 9.2 mph - N/A   Mostly Cloudy
2:42 PM 71.6 °F 62.6 °F 73% 29.61 in 10.0 mi SW 6.9 mph - N/A   Mostly Cloudy
2:56 PM 71.1 °F 62.1 °F 73% 29.60 in 10.0 mi WSW 9.2 mph - N/A   Mostly Cloudy
3:56 PM 70.0 °F 61.0 °F 73% 29.61 in 7.0 mi WSW 9.2 mph - N/A   Overcast
4:15 PM 69.8 °F 60.8 °F 73% 29.62 in 10.0 mi SW 9.2 mph - N/A   Overcast
4:56 PM 68.0 °F 60.1 °F 76% 29.62 in 10.0 mi WSW 6.9 mph - N/A   Overcast
5:42 PM 66.2 °F 60.8 °F 83% 29.64 in 10.0 mi West 5.8 mph - N/A   Overcast
5:56 PM 66.9 °F 60.1 °F 79% 29.64 in 10.0 mi West 8.1 mph - N/A   Overcast
6:50 PM 64.4 °F 60.8 °F 88% 29.67 in 6.0 mi West 5.8 mph - 0.00 in   Light Drizzle
6:56 PM 64.0 °F 61.0 °F 90% 29.66 in 4.0 mi West 5.8 mph - 0.00 in Rain Light Rain
7:25 PM 62.6 °F 60.8 °F 94% 29.68 in 7.0 mi West 4.6 mph - 0.00 in   Overcast
7:56 PM 63.0 °F 61.0 °F 93% 29.69 in 7.0 mi West 3.5 mph - 0.00 in   Overcast
8:41 PM 62.6 °F 60.8 °F 94% 29.71 in 7.0 mi West 3.5 mph - N/A   Overcast
8:56 PM 63.0 °F 61.0 °F 93% 29.71 in 7.0 mi WSW 3.5 mph - N/A   Overcast
9:06 PM 62.6 °F 60.8 °F 94% 29.72 in 7.0 mi WSW 4.6 mph - N/A   Overcast
9:44 PM 62.6 °F 60.8 °F 94% 29.73 in 7.0 mi West 3.5 mph - N/A   Overcast
9:56 PM 63.0 °F 60.1 °F 90% 29.73 in 7.0 mi SW 4.6 mph - N/A   Overcast
10:56 PM 63.0 °F 60.1 °F 90% 29.74 in 10.0 mi SW 4.6 mph - N/A   Overcast
11:17 PM 62.6 °F 60.8 °F 94% 29.74 in 8.0 mi WSW 4.6 mph - N/A   Overcast
11:56 PM 63.0 °F 60.1 °F 90% 29.74 in 8.0 mi West 5.8 mph - N/A   Overcast